Weather History for Kenosha, WI

Change the Weather History Date:

Thursday, June 13, 2013

  Actual Average Record
Temperature  
Mean Temperature 63 °F -  
Max Temperature 72 °F 74 °F 93 °F (1956)
Min Temperature 55 °F 55 °F 42 °F (1968)
Degree Days  
Heating Degree Days 2    
Growing Degree Days 13 (Base 50)    
Moisture  
Dew Point 54 °F    
Average Humidity 71    
Maximum Humidity 93    
Minimum Humidity 56    
Precipitation  
Precipitation 0.00 in - - ()
Sea Level Pressure  
Sea Level Pressure 29.91 in    
Wind  
Wind Speed 9 mph (NNE)    
Max Wind Speed 16 mph    
Max Gust Speed 24 mph    
Visibility 10 miles    
Events Rain    
Averages and records for this station are not official NWS values.
T = Trace of Precipitation, MM = Missing Value Source: NWS Daily Summary

Daily Weather History Graph

Daily Weather History Graph

Search for Another Location

Airport:

Trip Planner

Search our weather history database for the weather conditions in past years. The results will help you decide how hot, cold, wet, or windy it might be!

Date:

Astronomy

Jun. 13, 2013 Rise Set
Actual Time 5:13 AM CDT 8:30 PM CDT
Civil Twilight 4:38 AM CDT 9:05 PM CDT
Nautical Twilight 3:53 AM CDT 9:50 PM CDT
Astronomical Twilight 2:58 AM CDT 10:45 PM CDT
Moon 9:55 AM CDT (6/13) 11:31 PM CDT (6/13)
Length of Visible Light 16h 26m
Length of Day
15h 16m
Waxing Crescent, 22% of the Moon is Illuminated
Jun 13
Waxing Crescent
Jun 16
First Quarter
Jun 23
Full
Jun 29
Last Quarter
Jul 8
New

Hourly Weather History & Observations

Time (CDT) Temp. Dew Point Humidity Pressure Visibility Wind Dir Wind Speed Gust Speed Precip Events Conditions
12:53 AM 61.0 °F 59.0 °F 93% 29.72 in 7.0 mi NW 8.1 mph - 0.00 in   Overcast
1:04 AM 62.6 °F 59.0 °F 88% 29.73 in 6.0 mi North 6.9 mph - 0.00 in Rain Light Rain
1:53 AM 61.0 °F 57.9 °F 90% 29.73 in 9.0 mi NNW 6.9 mph - 0.00 in   Overcast
2:24 AM 60.8 °F 57.2 °F 88% 29.74 in 10.0 mi North 9.2 mph - N/A   Overcast
2:38 AM 60.8 °F 55.4 °F 82% 29.75 in 10.0 mi North 9.2 mph - N/A   Overcast
2:53 AM 61.0 °F 55.9 °F 83% 29.74 in 10.0 mi NNW 4.6 mph - N/A   Overcast
3:53 AM 61.0 °F 54.0 °F 78% 29.78 in 10.0 mi NNW 6.9 mph - N/A   Overcast
4:53 AM 61.0 °F 52.0 °F 72% 29.80 in 10.0 mi North 5.8 mph - N/A   Mostly Cloudy
5:53 AM 61.0 °F 52.0 °F 72% 29.83 in 10.0 mi North 9.2 mph - N/A   Clear
6:53 AM 62.1 °F 48.9 °F 62% 29.86 in 10.0 mi NNE 12.7 mph 19.6 mph N/A   Clear
7:53 AM 64.9 °F 51.1 °F 61% 29.89 in 10.0 mi NNE 13.8 mph 18.4 mph N/A   Clear
8:53 AM 68.0 °F 52.0 °F 56% 29.91 in 10.0 mi NNE 12.7 mph 23.0 mph N/A   Partly Cloudy
9:53 AM 69.1 °F 54.0 °F 58% 29.93 in 10.0 mi NNE 13.8 mph 21.9 mph N/A   Clear
10:53 AM 69.1 °F 55.9 °F 63% 29.95 in 10.0 mi NNE 10.4 mph 24.2 mph N/A   Clear
11:53 AM 70.0 °F 55.0 °F 59% 29.97 in 10.0 mi NNE 16.1 mph 23.0 mph N/A   Partly Cloudy
12:53 PM 71.1 °F 55.0 °F 57% 29.97 in 10.0 mi NE 10.4 mph 18.4 mph N/A   Partly Cloudy
1:53 PM 70.0 °F 57.0 °F 63% 29.99 in 10.0 mi NE 9.2 mph - N/A   Partly Cloudy
2:53 PM 68.0 °F 55.0 °F 63% 30.00 in 10.0 mi NNE 10.4 mph - N/A   Overcast
3:53 PM 71.1 °F 55.0 °F 57% 29.99 in 10.0 mi NNE 11.5 mph - N/A   Partly Cloudy
4:53 PM 69.1 °F 55.0 °F 61% 30.01 in 10.0 mi NNE 10.4 mph 18.4 mph N/A   Partly Cloudy
5:53 PM 64.9 °F 53.1 °F 65% 30.01 in 10.0 mi NNE 10.4 mph - N/A   Clear
6:53 PM 64.0 °F 52.0 °F 65% 30.02 in 10.0 mi NNE 10.4 mph - N/A   Clear
7:53 PM 62.1 °F 51.1 °F 67% 30.04 in 10.0 mi NNE 5.8 mph - N/A   Clear
8:53 PM 59.0 °F 50.0 °F 72% 30.06 in 10.0 mi NNE 10.4 mph - N/A   Clear
9:53 PM 57.0 °F 48.9 °F 74% 30.07 in 10.0 mi NNE 5.8 mph - N/A   Clear
10:53 PM 55.9 °F 48.9 °F 77% 30.08 in 10.0 mi North 6.9 mph - N/A   Clear
11:53 PM 55.0 °F 48.9 °F 80% 30.07 in 10.0 mi North 5.8 mph - N/A   Clear